OK2ZEO-5 Weather Reports


time (UTC)temp
C
wind
direction
speed
KPH
gust
KPH
rain 1hr
cm
rain 24hr
cm
rain mn
cm
humidity
%
barometer
mb
20260902060503 11 0 0.0 0.0 0.00 0.00 0.00 49 1022.8
20260902060217 10 340 0.0 1.6 0.00 0.00 0.00 49 1022.7
20260902055503 10 340 0.0 1.6 0.00 0.00 0.00 49 1022.8
20260902055003 10 343 0.0 1.6 0.00 0.00 0.00 50 1022.8
20260902054503 9 344 1.6 4.8 0.00 0.00 0.00 50 1022.8
20260902054216 9 345 1.6 4.8 0.00 0.00 0.00 50 1022.7
20260902053503 8 344 0.0 3.2 0.00 0.00 0.00 50 1022.6
20260902053003 8 343 1.6 4.8 0.00 0.00 0.00 51 1022.6
20260902052503 8 344 0.0 4.8 0.00 0.00 0.00 51 1022.7
20260902052003 8 0 0.0 0.0 0.00 0.00 0.00 51 1022.7
20260902051504 8 0 0.0 0.0 0.00 0.00 0.00 51 1022.7
20260902051003 8 0 0.0 0.0 0.00 0.00 0.00 52 1022.7
20260902050719 8 0 0.0 0.0 0.00 0.00 0.00 52 1022.7
20260902050216 8 0 0.0 0.0 0.00 0.00 0.00 52 1022.6
20260902045717 8 0 0.0 0.0 0.00 0.00 0.00 52 1022.6
20260902045003 7 0 0.0 0.0 0.00 0.00 0.00 52 1022.6
20260902044503 7 0 0.0 0.0 0.00 0.00 0.00 52 1022.6
20260902044216 7 0 0.0 0.0 0.00 0.00 0.00 52 1022.6
20260902043503 7 0 0.0 0.0 0.00 0.00 0.00 52 1022.6
20260902043218 7 0 0.0 0.0 0.00 0.00 0.00 52 1022.5
20260902042503 7 0 0.0 0.0 0.00 0.00 0.00 52 1022.5
20260902042003 7 0 0.0 0.0 0.00 0.00 0.00 53 1022.5
20260902041717 7 0 0.0 0.0 0.00 0.00 0.00 52 1022.5
20260902041003 7 0 0.0 0.0 0.00 0.00 0.00 52 1022.5
20260902040503 7 0 0.0 0.0 0.00 0.00 0.00 53 1022.5
20260902040003 7 0 0.0 0.0 0.00 0.00 0.00 53 1022.5
20260902035503 7 0 0.0 0.0 0.00 0.00 0.00 53 1022.5
20260902035003 7 0 0.0 0.0 0.00 0.00 0.00 53 1022.5
20260902034503 7 345 0.0 1.6 0.00 0.00 0.00 53 1022.5
20260902034003 7 343 0.0 1.6 0.00 0.00 0.00 53 1022.5
20260902033717 8 344 0.0 1.6 0.00 0.00 0.00 53 1022.5
20260902033003 8 343 0.0 1.6 0.00 0.00 0.00 53 1022.4
20260902032503 8 345 0.0 1.6 0.00 0.00 0.00 53 1022.4
20260902032003 8 345 0.0 3.2 0.00 0.00 0.00 53 1022.4
20260902031503 8 344 1.6 4.8 0.00 0.00 0.00 53 1022.3
20260902031003 8 344 3.2 6.4 0.00 0.00 0.00 53 1022.3
20260902030503 8 345 4.8 6.4 0.00 0.00 0.00 53 1022.3
20260902030003 8 345 1.6 6.4 0.00 0.00 0.00 53 1022.3
20260902025503 8 343 0.0 3.2 0.00 0.00 0.00 53 1022.2
20260902025003 8 343 0.0 3.2 0.00 0.00 0.00 53 1022.2
20260902024718 8 341 0.0 3.2 0.00 0.00 0.00 53 1022.2
20260902024003 8 344 1.6 3.2 0.00 0.00 0.00 53 1022.3
20260902023716 8 344 3.2 6.4 0.00 0.00 0.00 53 1022.3
20260902023003 8 342 4.8 6.4 0.00 0.00 0.00 54 1022.4
20260902022503 8 339 1.6 6.4 0.00 0.00 0.00 53 1022.4
20260902022003 8 336 0.0 3.2 0.00 0.00 0.00 53 1022.3
20260902021503 8 338 0.0 1.6 0.00 0.00 0.00 54 1022.3
20260902021003 8 336 0.0 1.6 0.00 0.00 0.00 53 1022.3
20260902020503 8 336 1.6 4.8 0.00 0.00 0.00 54 1022.3
20260902020003 8 335 1.6 4.8 0.00 0.00 0.00 54 1022.4
20260902015504 8 333 0.0 3.2 0.00 0.00 0.00 54 1022.3
20260902015003 8 0 0.0 0.0 0.00 0.00 0.00 54 1022.4
20260902014503 8 0 0.0 0.0 0.00 0.00 0.00 54 1022.4
20260902014219 8 0 0.0 0.0 0.00 0.00 0.00 54 1022.4
20260902013503 8 0 0.0 0.0 0.00 0.00 0.00 54 1022.4
20260902013003 8 0 0.0 0.0 0.00 0.00 0.00 54 1022.4
20260902012503 8 0 0.0 0.0 0.00 0.00 0.00 54 1022.4
20260902012004 8 0 0.0 0.0 0.00 0.00 0.00 54 1022.4
20260902011503 8 0 0.0 0.0 0.00 0.00 0.00 54 1022.4
20260902011003 8 317 0.0 1.6 0.00 0.00 0.00 54 1022.4
20260902010718 8 325 0.0 1.6 0.00 0.00 0.00 54 1022.4
20260902010003 8 334 0.0 1.6 0.00 0.00 0.00 54 1022.4
20260902005503 9 337 0.0 1.6 0.00 0.00 0.00 54 1022.4
20260902005003 9 0 0.0 0.0 0.00 0.00 0.00 54 1022.4
20260902004718 9 317 0.0 1.6 0.00 0.00 0.00 54 1022.4
20260902004219 9 330 0.0 1.6 0.00 0.00 0.00 55 1022.3
20260902003503 9 0 0.0 0.0 0.00 0.00 0.00 54 1022.4
20260902003003 9 0 0.0 0.0 0.00 0.00 0.00 54 1022.4
20260902002503 9 324 0.0 1.6 0.00 0.00 0.00 54 1022.4
20260902002003 9 324 0.0 1.6 0.00 0.00 0.00 54 1022.4
20260902001503 9 332 0.0 1.6 0.00 0.00 0.00 54 1022.4
20260902001003 9 329 1.6 3.2 0.00 0.00 0.00 55 1022.4
20260902000503 10 331 1.6 4.8 0.00 0.00 0.00 55 1022.4
20260902000003 10 333 1.6 4.8 0.00 0.00 0.00 55 1022.4
20260901235503 10 334 3.2 4.8 0.00 0.00 0.00 55 1022.4
20260901235003 10 334 3.2 4.8 0.00 0.00 0.00 55 1022.4
20260901234503 10 334 1.6 4.8 0.00 0.00 0.00 56 1022.4
20260901234218 10 334 1.6 4.8 0.00 0.00 0.00 56 1022.4
20260901233503 10 333 1.6 4.8 0.00 0.00 0.00 57 1022.4
20260901233003 10 335 0.0 4.8 0.00 0.00 0.00 57 1022.3
20260901232717 10 0 0.0 0.0 0.00 0.00 0.00 57 1022.3
20260901232003 10 0 0.0 0.0 0.00 0.00 0.00 57 1022.4
20260901231503 10 0 0.0 0.0 0.00 0.00 0.00 57 1022.4
20260901231216 10 0 0.0 0.0 0.00 0.00 0.00 57 1022.4
20260901230717 10 0 0.0 0.0 0.00 0.00 0.00 57 1022.4
20260901230003 10 0 0.0 0.0 0.00 0.00 0.00 57 1022.5
20260901225503 10 0 0.0 0.0 0.00 0.00 0.00 57 1022.5
20260901225003 10 0 0.0 0.0 0.00 0.00 0.00 57 1022.5
20260901224717 10 0 0.0 0.0 0.00 0.00 0.00 57 1022.5
20260901224218 10 0 0.0 0.0 0.00 0.00 0.00 57 1022.5
20260901223503 10 0 0.0 0.0 0.00 0.00 0.00 57 1022.5
20260901223003 10 0 0.0 0.0 0.00 0.00 0.00 58 1022.5
20260901222503 10 0 0.0 0.0 0.00 0.00 0.00 58 1022.6
20260901222218 11 330 0.0 3.2 0.00 0.00 0.00 58 1022.5
20260901221503 11 326 1.6 3.2 0.00 0.00 0.00 58 1022.6
20260901221003 11 323 1.6 4.8 0.00 0.00 0.00 58 1022.5
20260901220717 11 322 3.2 4.8 0.00 0.00 0.00 58 1022.5
20260901220004 11 319 1.6 4.8 0.00 0.00 0.00 59 1022.5
20260901215503 11 0 0.0 0.0 0.00 0.00 0.00 59 1022.5
20260901215003 11 0 0.0 0.0 0.00 0.00 0.00 59 1022.5
20260901214503 11 0 0.0 0.0 0.00 0.00 0.00 59 1022.5
20260901214003 11 316 0.0 1.6 0.00 0.00 0.00 60 1022.5
20260901213719 11 316 0.0 1.6 0.00 0.00 0.00 60 1022.5
20260901213003 11 316 1.6 3.2 0.00 0.00 0.00 61 1022.5
20260901212503 11 316 0.0 3.2 0.00 0.00 0.00 61 1022.5
20260901212217 11 316 0.0 3.2 0.00 0.00 0.00 61 1022.5
20260901211503 11 0 0.0 0.0 0.00 0.00 0.00 62 1022.4
20260901211003 11 0 0.0 0.0 0.00 0.00 0.00 62 1022.4
20260901210503 11 0 0.0 0.0 0.00 0.00 0.00 63 1022.3
20260901210003 12 0 0.0 0.0 0.00 0.00 0.00 63 1022.4
20260901205718 12 0 0.0 0.0 0.00 0.00 0.00 64 1022.4
20260901205219 12 0 0.0 0.0 0.00 0.00 0.00 64 1022.3
20260901204503 12 0 0.0 0.0 0.00 0.00 0.00 65 1022.3
20260901204003 12 0 0.0 0.0 0.00 0.00 0.00 65 1022.4
20260901203503 12 0 0.0 0.0 0.00 0.00 0.00 66 1022.4
20260901203004 12 0 0.0 0.0 0.00 0.00 0.00 66 1022.4
20260901202503 12 0 0.0 0.0 0.00 0.00 0.00 67 1022.4
20260901202003 12 316 0.0 1.6 0.00 0.00 0.00 68 1022.3
20260901201503 13 316 0.0 1.6 0.00 0.00 0.00 68 1022.3
20260901201219 13 316 0.0 1.6 0.00 0.00 0.00 68 1022.3
20260901200503 13 0 0.0 0.0 0.00 0.00 0.00 69 1022.3
20260901200003 13 0 0.0 0.0 0.00 0.00 0.00 69 1022.3
20260901195503 13 0 0.0 0.0 0.00 0.00 0.00 69 1022.3
20260901195003 13 0 0.0 0.0 0.00 0.00 0.00 69 1022.4
20260901194503 13 0 0.0 0.0 0.00 0.00 0.00 69 1022.3
20260901194217 13 0 0.0 0.0 0.00 0.00 0.00 70 1022.3
20260901193718 13 316 0.0 3.2 0.00 0.00 0.00 70 1022.3
20260901193219 13 316 1.6 4.8 0.00 0.00 0.00 71 1022.3
20260901192716 13 316 1.6 4.8 0.00 0.00 0.00 71 1022.3
20260901192003 13 0 0.0 0.0 0.00 0.00 0.00 72 1022.2
20260901191503 14 0 0.0 0.0 0.00 0.00 0.00 73 1022.2
20260901191219 14 0 0.0 0.0 0.00 0.00 0.00 73 1022.1
20260901190503 14 0 0.0 0.0 0.00 0.00 0.00 73 1022.1
20260901190003 14 0 0.0 0.0 0.00 0.00 0.00 74 1022.1
20260901185503 15 0 0.0 0.0 0.00 0.00 0.00 74 1022.1
20260901185003 15 0 0.0 0.0 0.00 0.00 0.00 74 1022.1
20260901184503 15 0 0.0 0.0 0.00 0.00 0.00 74 1022.0
20260901184216 15 0 0.0 0.0 0.00 0.00 0.00 74 1022.0
20260901183503 16 0 0.0 0.0 0.00 0.00 0.00 73 1021.9
20260901183003 16 0 0.0 0.0 0.00 0.00 0.00 73 1021.9
20260901182503 16 0 0.0 0.0 0.00 0.00 0.00 73 1021.8
20260901182003 16 0 0.0 0.0 0.00 0.00 0.00 73 1021.7
20260901181717 16 0 0.0 0.0 0.00 0.00 0.00 73 1021.8
20260901181003 17 0 0.0 0.0 0.00 0.00 0.00 72 1021.6
20260901180503 17 0 0.0 0.0 0.00 0.00 0.00 71 1021.6
20260901180007 17 0 0.0 0.0 0.00 0.00 0.00 69 1021.6
20260901175503 18 0 0.0 0.0 0.00 0.00 0.00 67 1021.5
20260901175003 18 0 0.0 0.0 0.00 0.00 0.00 67 1021.5
20260901174503 18 0 0.0 0.0 0.00 0.00 0.00 65 1021.5
20260901174003 19 0 0.0 0.0 0.00 0.00 0.00 63 1021.5
20260901173503 20 316 0.0 3.2 0.00 0.00 0.00 62 1021.4
20260901173003 20 316 1.6 4.8 0.00 0.00 0.00 61 1021.4
20260901172503 20 316 1.6 4.8 0.00 0.00 0.00 59 1021.4
20260901172003 20 316 3.2 4.8 0.00 0.00 0.00 57 1021.4
20260901171503 21 316 3.2 4.8 0.00 0.00 0.00 56 1021.4
20260901171218 21 316 3.2 4.8 0.00 0.00 0.00 56 1021.3
20260901170503 21 316 3.2 6.4 0.00 0.00 0.00 55 1021.3
20260901170003 21 315 3.2 6.4 0.00 0.00 0.00 55 1021.3
20260901165503 21 308 3.2 6.4 0.00 0.00 0.00 55 1021.3
20260901165003 21 292 3.2 6.4 0.00 0.00 0.00 54 1021.3
20260901164503 21 275 3.2 9.7 0.00 0.00 0.00 55 1021.3
20260901164003 21 278 4.8 11.3 0.00 0.00 0.00 54 1021.3
20260901163503 21 285 6.4 11.3 0.00 0.00 0.00 53 1021.3
20260901163218 21 295 4.8 11.3 0.00 0.00 0.00 53 1021.3
20260901162503 21 300 4.8 11.3 0.00 0.00 0.00 54 1021.4
20260901162224 21 296 4.8 11.3 0.00 0.00 0.00 54 1021.4
20260901161717 21 299 4.8 11.3 0.00 0.00 0.00 54 1021.4
20260901161218 21 311 6.4 12.9 0.00 0.00 0.00 54 1021.5
20260901160503 21 312 8.0 14.5 0.00 0.00 0.00 53 1021.5
20260901160003 21 292 8.0 14.5 0.00 0.00 0.00 54 1021.5
20260901155503 21 283 8.0 16.1 0.00 0.00 0.00 54 1021.5
20260901155217 21 281 9.7 16.1 0.00 0.00 0.00 54 1021.5
20260901154507 21 309 8.0 16.1 0.00 0.00 0.00 54 1021.5
20260901154003 21 308 9.7 19.3 0.00 0.00 0.00 54 1021.6
20260901153503 21 305 9.7 19.3 0.00 0.00 0.00 54 1021.6
20260901153003 21 311 8.0 17.7 0.00 0.00 0.00 55 1021.5
20260901152503 21 316 8.0 14.5 0.00 0.00 0.00 56 1021.5
20260901152003 21 305 9.7 19.3 0.00 0.00 0.00 55 1021.6
20260901151503 21 287 12.9 22.5 0.00 0.00 0.00 55 1021.5
20260901151003 21 290 12.9 22.5 0.00 0.00 0.00 54 1021.6
20260901150503 21 297 11.3 20.9 0.00 0.00 0.00 54 1021.5
20260901150003 21 290 9.7 16.1 0.00 0.00 0.00 55 1021.5
20260901145503 21 299 8.0 14.5 0.00 0.00 0.00 55 1021.5
20260901145003 21 300 8.0 20.9 0.00 0.00 0.00 55 1021.4
20260901144503 21 297 9.7 20.9 0.00 0.00 0.00 57 1021.5
20260901144219 21 300 9.7 20.9 0.00 0.00 0.00 56 1021.6
20260901143503 21 298 11.3 20.9 0.00 0.00 0.00 56 1021.5
20260901143217 21 294 11.3 22.5 0.00 0.00 0.00 56 1021.6
20260901142503 21 294 11.3 22.5 0.00 0.00 0.00 55 1021.5
20260901142004 21 294 11.3 19.3 0.00 0.00 0.00 55 1021.5
20260901141503 21 293 11.3 19.3 0.00 0.00 0.00 56 1021.5
20260901141003 21 297 11.3 19.3 0.00 0.00 0.00 56 1021.5
20260901140503 21 300 11.3 20.9 0.00 0.00 0.00 54 1021.4
20260901140003 21 308 11.3 20.9 0.00 0.00 0.00 52 1021.4
20260901135503 21 320 12.9 20.9 0.00 0.00 0.00 53 1021.4
20260901135003 21 328 12.9 19.3 0.00 0.00 0.00 53 1021.4
20260901134503 21 327 11.3 20.9 0.00 0.00 0.00 53 1021.3
20260901134003 21 300 9.7 20.9 0.00 0.00 0.00 53 1021.5
20260901133503 21 278 11.3 20.9 0.00 0.00 0.00 53 1021.5
20260901133003 22 296 11.3 22.5 0.00 0.00 0.00 53 1021.4
20260901132503 21 308 9.7 22.5 0.00 0.00 0.00 55 1021.5
20260901132218 21 296 9.7 22.5 0.00 0.00 0.00 56 1021.5
20260901131719 21 276 9.7 25.7 0.00 0.00 0.00 55 1021.5
20260901131003 21 302 12.9 25.7 0.00 0.00 0.00 57 1021.5
20260901130503 20 302 12.9 25.7 0.00 0.00 0.00 59 1021.7
20260901130218 20 304 11.3 25.7 0.00 0.00 0.00 59 1021.6
20260901125507 21 326 11.3 22.5 0.00 0.00 0.00 60 1021.6
20260901125003 21 311 12.9 22.5 0.00 0.00 0.00 57 1021.5
20260901124505 21 302 12.9 20.9 0.00 0.00 0.00 58 1021.6
20260901124218 21 302 11.3 20.9 0.00 0.00 0.00 57 1021.6
20260901123503 21 319 9.7 20.9 0.00 0.00 0.00 57 1021.5
20260901123003 20 317 11.3 20.9 0.00 0.00 0.00 58 1021.6
20260901122503 21 301 9.7 19.3 0.00 0.00 0.00 58 1021.5
20260901122003 21 301 8.0 16.1 0.00 0.00 0.00 57 1021.5
20260901121503 21 314 6.4 14.5 0.00 0.00 0.00 57 1021.6
20260901121003 21 316 8.0 19.3 0.00 0.00 0.00 59 1021.6
20260901120503 20 328 11.3 19.3 0.00 0.00 0.00 60 1021.7
20260901120003 20 326 12.9 24.1 0.00 0.00 0.00 60 1021.6
20260901115503 20 300 16.1 25.7 0.00 0.00 0.00 59 1021.7
20260901115003 21 290 17.7 25.7 0.00 0.00 0.00 58 1021.7
20260901114504 20 290 19.3 30.6 0.00 0.00 0.00 57 1021.7
20260901114003 21 276 17.7 32.2 0.00 0.00 0.00 55 1021.7
20260901113503 21 278 16.1 32.2 0.00 0.00 0.00 56 1021.5
20260901113003 21 287 14.5 22.5 0.00 0.00 0.00 56 1021.5
20260901112503 21 287 12.9 22.5 0.00 0.00 0.00 56 1021.6
20260901112003 20 292 12.9 24.1 0.00 0.00 0.00 57 1021.7
20260901111503 20 289 14.5 24.1 0.00 0.00 0.00 57 1021.7
20260901111003 20 295 14.5 25.7 0.00 0.00 0.00 58 1021.6
20260901110503 20 301 12.9 25.7 0.00 0.00 0.00 56 1021.6
20260901110003 20 301 9.7 25.7 0.00 0.00 0.00 55 1021.6
20260901105719 20 306 11.3 20.9 0.00 0.00 0.00 57 1021.6
20260901105220 20 309 12.9 20.9 0.00 0.00 0.00 57 1021.6
20260901104503 20 309 12.9 22.5 0.00 0.00 0.00 57 1021.6
20260901104003 20 306 12.9 22.5 0.00 0.00 0.00 57 1021.6
20260901103503 20 306 12.9 20.9 0.00 0.00 0.00 58 1021.5
20260901103003 20 310 14.5 20.9 0.00 0.00 0.00 59 1021.7
20260901102503 20 295 12.9 20.9 0.00 0.00 0.00 59 1021.6
20260901102003 20 276 14.5 27.4 0.00 0.00 0.00 60 1021.5
20260901101503 20 276 14.5 27.4 0.00 0.00 0.00 59 1021.6
20260901101003 20 281 12.9 25.7 0.00 0.00 0.00 59 1021.6
20260901100503 19 274 12.9 25.7 0.00 0.00 0.00 60 1021.5
20260901100004 19 276 14.5 25.7 0.00 0.00 0.00 60 1021.6
20260901095504 19 291 11.3 22.5 0.00 0.00 0.00 60 1021.6
20260901095003 19 289 12.9 24.1 0.00 0.00 0.00 61 1021.5
20260901094716 19 283 14.5 24.1 0.00 0.00 0.00 61 1021.5
20260901094003 19 285 12.9 20.9 0.00 0.00 0.00 60 1021.5
20260901093503 19 291 11.3 20.9 0.00 0.00 0.00 61 1021.5
20260901093003 19 295 11.3 19.3 0.00 0.00 0.00 62 1021.5
20260901092716 19 300 12.9 22.5 0.00 0.00 0.00 61 1021.4
20260901092003 19 286 14.5 24.1 0.00 0.00 0.00 61 1021.3
20260901091503 19 275 14.5 27.4 0.00 0.00 0.00 61 1021.3
20260901091003 19 277 11.3 27.4 0.00 0.00 0.00 61 1021.4
20260901090503 18 284 14.5 27.4 0.00 0.00 0.00 62 1021.4
20260901090003 18 273 16.1 27.4 0.00 0.00 0.00 62 1021.4
20260901085503 19 276 12.9 27.4 0.00 0.00 0.00 61 1021.4
20260901085003 18 289 12.9 20.9 0.00 0.00 0.00 63 1021.3
20260901084716 18 294 12.9 22.5 0.00 0.00 0.00 62 1021.3
20260901084003 18 293 14.5 24.1 0.00 0.00 0.00 63 1021.2
20260901083717 19 291 12.9 24.1 0.00 0.00 0.00 62 1021.3
20260901083003 18 288 14.5 27.4 0.00 0.00 0.00 64 1021.2
20260901082715 18 280 16.1 33.8 0.00 0.00 0.00 64 1021.2
20260901082216 18 285 19.3 33.8 0.00 0.00 0.00 63 1021.3
20260901081503 18 296 16.1 27.4 0.00 0.00 0.00 63 1021.2
20260901081003 18 291 14.5 25.7 0.00 0.00 0.00 63 1021.1
20260901080503 19 284 14.5 24.1 0.00 0.00 0.00 65 1021.1
20260901080216 18 276 16.1 32.2 0.00 0.00 0.00 64 1021.0
20260901075503 18 284 14.5 32.2 0.00 0.00 0.00 65 1020.9
20260901075003 18 299 14.5 24.1 0.00 0.00 0.00 66 1020.9
20260901074503 18 298 14.5 27.4 0.00 0.00 0.00 66 1020.8
20260901074003 18 288 14.5 27.4 0.00 0.00 0.00 67 1020.8
20260901073503 18 283 14.5 25.7 0.00 0.00 0.00 67 1020.7
20260901073003 18 285 14.5 25.7 0.00 0.00 0.00 68 1020.6
20260901072503 18 290 16.1 25.7 0.00 0.00 0.00 67 1020.6
20260901072003 18 288 12.9 25.7 0.00 0.00 0.00 68 1020.6
20260901071503 18 290 14.5 27.4 0.00 0.00 0.00 68 1020.6
20260901071218 18 292 14.5 27.4 0.00 0.00 0.00 68 1020.6
20260901070503 17 295 14.5 25.7 0.00 0.00 0.00 69 1020.5
20260901070003 17 287 16.1 32.2 0.00 0.00 0.00 70 1020.5
20260901065503 17 279 16.1 32.2 0.00 0.00 0.00 70 1020.5
20260901065003 17 278 12.9 27.4 0.00 0.00 0.00 70 1020.4
20260901064503 18 287 9.7 27.4 0.00 0.00 0.00 70 1020.4
20260901064003 18 303 8.0 19.3 0.00 0.00 0.00 71 1020.3
20260901063717 17 298 9.7 20.9 0.00 0.00 0.00 71 1020.3
20260901063218 17 292 11.3 22.5 0.00 0.00 0.00 71 1020.3
20260901062503 17 297 11.3 22.5 0.00 0.00 0.00 71 1020.3
20260901062003 17 288 14.5 25.7 0.00 0.00 0.00 71 1020.2
20260901061503 17 289 14.5 25.7 0.00 0.00 0.00 71 1020.3
20260901061003 17 296 11.3 20.9 0.00 0.00 0.00 71 1020.2